Starlink 30865

operational
NORAD ID: 58226 Int'l Des: 2023-170 Owner: SPXS Country: US Constellation: starlink
LEOCIRCULAR

Über Starlink 30865

Beschreibung wird geladen...

Live-Position

3D-Globus wird geladen...

Nächste Überflüge

Höhenverlauf

Altitude vs Time

uPlot chart will show altitude changes over time

Zweizeiliger Elementsatz

1 58226U 23170W 25303.68775743 .00000814 00000-0 75356-4 0 9999
2 58226 43.0029 171.2781 0001164 266.3552 93.7158 15.02531956110856
Epoch: 30. Okt. 2025 • Age: 24 hours

Aktueller Status

Höhe 558.3 km
Geschwindigkeit 7.58 km/s
Subsatellitenpunkt 8.48°N, 112.63°W
Startdatum 4. Nov. 2023
Alter 1.9 years
Typ internet

Technische Details

Klassifizierung Payload
Masse 730.00 kg
Trockenmasse 700.00 kg
Gesamtmasse 730.00 kg
Länge 0.30 m
Durchmesser 4.10 m
Spannweite 29.00 m
Form Box + pan
Hersteller SPXS
Bus-Typ Starlink V2M
Phasenstatus In Orbit
Besitzer/Staat SPXS/US

Große Konstellationen

Loading constellations...